GEFSGL_prec_meanprecacc_168.txt.gz
Total_Precipitation_Accumulation
1.06 1.04 1.03 1.00 0.90 0.83 0.79 0.72 0.62 0.55 0.52 0.50 0.50 0.50 0.50 0.54 0.58 0.63 0.66 0.69 0.74 0.71 0.70 0.68 0.64 0.63 0.65 0.67 0.74 0.83 0.94 1.03 1.13 1.04 0.88 0.83 0.83 0.86 0.90 0.82 0.81 0.76 0.70
0.87 0.93 0.94 0.85 0.77 0.72 0.66 0.60 0.56 0.50 0.48 0.50 0.51 0.49 0.45 0.44 0.48 0.55 0.61 0.62 0.69 0.69 0.68 0.67 0.62 0.61 0.63 0.63 0.66 0.71 0.82 0.95 1.06 1.10 0.96 0.87 0.84 0.80 0.79 0.75 0.64 0.60 0.63
0.66 0.65 0.69 0.67 0.62 0.59 0.51 0.47 0.45 0.44 0.44 0.43 0.42 0.41 0.40 0.39 0.39 0.40 0.45 0.50 0.56 0.60 0.62 0.67 0.66 0.64 0.62 0.62 0.67 0.70 0.80 0.92 1.04 1.07 0.99 0.92 0.90 0.86 0.90 0.84 0.75 0.79 0.69
0.60 0.56 0.57 0.56 0.54 0.52 0.49 0.45 0.40 0.38 0.38 0.36 0.32 0.31 0.31 0.31 0.30 0.29 0.29 0.33 0.39 0.43 0.47 0.59 0.65 0.65 0.63 0.67 0.71 0.75 0.81 0.93 0.98 1.01 0.95 0.89 0.89 0.90 0.95 1.00 0.97 0.89 0.78
0.61 0.61 0.61 0.53 0.50 0.50 0.50 0.46 0.41 0.38 0.34 0.33 0.30 0.26 0.24 0.23 0.23 0.24 0.24 0.24 0.32 0.35 0.38 0.47 0.54 0.58 0.59 0.61 0.63 0.69 0.80 0.93 1.00 1.03 0.97 0.92 0.88 0.98 1.01 0.98 0.94 0.93 0.80
0.59 0.66 0.68 0.63 0.60 0.58 0.55 0.53 0.48 0.42 0.37 0.31 0.27 0.26 0.23 0.20 0.23 0.22 0.23 0.28 0.34 0.39 0.44 0.47 0.46 0.48 0.48 0.46 0.51 0.59 0.71 0.87 1.01 1.07 1.02 0.98 0.93 0.97 1.03 1.01 0.99 1.00 0.94
0.67 0.66 0.69 0.68 0.67 0.62 0.55 0.54 0.51 0.44 0.38 0.34 0.28 0.27 0.26 0.20 0.17 0.17 0.19 0.28 0.38 0.44 0.48 0.48 0.41 0.42 0.50 0.52 0.52 0.54 0.64 0.73 0.89 1.07 1.12 1.01 0.95 0.97 1.08 1.12 1.06 1.05 1.04
0.72 0.69 0.63 0.59 0.56 0.52 0.50 0.51 0.46 0.41 0.36 0.34 0.30 0.27 0.27 0.19 0.15 0.15 0.17 0.24 0.30 0.33 0.34 0.39 0.47 0.51 0.47 0.48 0.48 0.58 0.66 0.77 0.84 0.91 1.02 0.94 0.87 0.91 1.00 1.04 0.99 0.96 0.90
0.70 0.63 0.53 0.47 0.46 0.44 0.46 0.46 0.42 0.40 0.37 0.33 0.30 0.30 0.31 0.24 0.17 0.15 0.17 0.24 0.27 0.26 0.24 0.28 0.34 0.39 0.38 0.44 0.53 0.69 0.73 0.84 0.91 1.06 1.05 0.95 0.91 0.90 0.81 0.81 0.98 1.08 1.04
0.58 0.50 0.42 0.38 0.40 0.41 0.41 0.41 0.39 0.37 0.34 0.30 0.30 0.31 0.28 0.26 0.17 0.14 0.15 0.19 0.25 0.23 0.27 0.31 0.30 0.26 0.31 0.40 0.55 0.74 0.87 0.92 1.04 1.24 1.20 1.14 1.04 0.97 0.84 0.80 1.01 1.19 1.18
0.43 0.42 0.41 0.38 0.39 0.38 0.39 0.40 0.38 0.34 0.34 0.32 0.33 0.32 0.28 0.22 0.16 0.10 0.10 0.15 0.19 0.23 0.30 0.36 0.35 0.29 0.31 0.36 0.50 0.70 0.86 0.91 1.13 1.39 1.27 1.10 1.01 0.93 0.89 0.89 0.96 1.04 1.03
0.38 0.41 0.42 0.37 0.30 0.28 0.36 0.40 0.36 0.37 0.38 0.38 0.38 0.33 0.27 0.20 0.15 0.11 0.09 0.08 0.11 0.25 0.40 0.38 0.36 0.35 0.35 0.42 0.55 0.72 0.86 1.04 1.22 1.31 1.11 0.94 0.83 0.79 0.79 0.74 0.70 0.71 0.77
0.38 0.43 0.42 0.35 0.34 0.30 0.32 0.35 0.34 0.35 0.32 0.30 0.31 0.30 0.27 0.24 0.19 0.13 0.11 0.10 0.12 0.22 0.36 0.40 0.39 0.37 0.48 0.68 0.80 0.90 1.03 1.22 1.27 1.12 0.97 0.84 0.70 0.65 0.61 0.59 0.57 0.61 0.64
0.36 0.39 0.38 0.37 0.38 0.38 0.33 0.24 0.24 0.26 0.24 0.23 0.26 0.28 0.30 0.30 0.22 0.17 0.18 0.19 0.20 0.24 0.34 0.47 0.54 0.57 0.72 0.94 1.09 1.18 1.26 1.29 1.14 0.99 0.88 0.76 0.62 0.58 0.57 0.52 0.54 0.57 0.61
0.31 0.32 0.33 0.33 0.33 0.39 0.33 0.20 0.14 0.14 0.11 0.14 0.19 0.21 0.27 0.27 0.18 0.16 0.17 0.20 0.23 0.26 0.32 0.49 0.65 0.70 0.82 0.98 1.12 1.20 1.23 1.21 1.11 0.95 0.84 0.73 0.63 0.57 0.54 0.47 0.47 0.48 0.52
0.29 0.26 0.20 0.18 0.21 0.24 0.27 0.24 0.12 0.05 0.04 0.04 0.06 0.09 0.12 0.14 0.12 0.11 0.14 0.19 0.23 0.30 0.39 0.60 0.71 0.71 0.78 0.88 0.98 1.07 1.05 1.00 0.93 0.88 0.83 0.76 0.67 0.57 0.53 0.49 0.46 0.46 0.51
0.23 0.21 0.12 0.09 0.12 0.16 0.19 0.27 0.26 0.14 0.05 0.04 0.03 0.05 0.07 0.09 0.10 0.11 0.13 0.18 0.22 0.31 0.44 0.63 0.73 0.78 0.81 0.84 0.86 0.89 0.94 0.93 0.85 0.79 0.74 0.68 0.60 0.53 0.50 0.48 0.43 0.42 0.43
0.12 0.09 0.08 0.09 0.08 0.10 0.11 0.14 0.19 0.26 0.25 0.19 0.09 0.05 0.07 0.09 0.12 0.12 0.15 0.20 0.26 0.31 0.45 0.60 0.70 0.75 0.79 0.81 0.79 0.75 0.79 0.81 0.75 0.67 0.62 0.57 0.52 0.49 0.45 0.43 0.39 0.32 0.31
0.10 0.10 0.08 0.06 0.05 0.05 0.06 0.08 0.11 0.17 0.21 0.23 0.20 0.13 0.10 0.13 0.16 0.17 0.21 0.27 0.33 0.34 0.41 0.53 0.62 0.66 0.67 0.67 0.67 0.66 0.67 0.68 0.64 0.58 0.55 0.51 0.48 0.43 0.40 0.33 0.28 0.20 0.23
0.06 0.04 0.04 0.05 0.04 0.04 0.04 0.06 0.08 0.14 0.17 0.18 0.20 0.19 0.16 0.25 0.36 0.33 0.29 0.32 0.33 0.32 0.36 0.46 0.54 0.57 0.56 0.52 0.49 0.49 0.50 0.50 0.50 0.48 0.47 0.45 0.41 0.37 0.30 0.25 0.23 0.22 0.23
0.03 0.02 0.02 0.03 0.03 0.03 0.03 0.03 0.05 0.09 0.13 0.16 0.14 0.13 0.21 0.30 0.40 0.39 0.37 0.40 0.39 0.36 0.34 0.38 0.42 0.46 0.45 0.41 0.37 0.34 0.35 0.38 0.38 0.39 0.40 0.39 0.34 0.29 0.24 0.19 0.16 0.14 0.14
0.02 0.02 0.02 0.02 0.02 0.03 0.03 0.03 0.03 0.04 0.07 0.12 0.12 0.12 0.20 0.25 0.31 0.35 0.39 0.42 0.44 0.41 0.36 0.35 0.35 0.37 0.36 0.33 0.31 0.28 0.27 0.27 0.29 0.31 0.34 0.33 0.29 0.24 0.18 0.13 0.11 0.09 0.08
0.01 0.02 0.03 0.02 0.02 0.02 0.03 0.03 0.03 0.03 0.04 0.07 0.10 0.13 0.19 0.26 0.31 0.37 0.42 0.43 0.43 0.41 0.35 0.31 0.33 0.36 0.33 0.28 0.26 0.23 0.22 0.21 0.22 0.26 0.32 0.33 0.27 0.21 0.14 0.10 0.07 0.06 0.05
0.01 0.01 0.02 0.01 0.01 0.02 0.02 0.02 0.02 0.01 0.02 0.04 0.07 0.10 0.15 0.20 0.25 0.29 0.35 0.39 0.41 0.40 0.38 0.39 0.39 0.37 0.32 0.26 0.23 0.20 0.20 0.21 0.21 0.25 0.28 0.30 0.26 0.17 0.11 0.08 0.06 0.05 0.05
0.01 0.01 0.02 0.01 0.01 0.01 0.01 0.02 0.02 0.02 0.02 0.03 0.04 0.07 0.10 0.12 0.15 0.18 0.24 0.29 0.32 0.34 0.36 0.38 0.37 0.33 0.29 0.24 0.19 0.17 0.19 0.19 0.17 0.21 0.27 0.30 0.24 0.17 0.12 0.09 0.08 0.07 0.07
0.01 0.01 0.01 0.01 0.01 0.01 0.01 0.01 0.01 0.02 0.03 0.03 0.04 0.06 0.07 0.10 0.12 0.15 0.18 0.21 0.23 0.26 0.30 0.34 0.34 0.26 0.18 0.15 0.13 0.12 0.10 0.08 0.08 0.11 0.21 0.26 0.20 0.16 0.16 0.13 0.09 0.08 0.09

GEFSGL_prec_meanprecacc_174.txt.gz
Total_Precipitation_Accumulation
1.10 1.08 1.08 1.05 0.95 0.88 0.83 0.76 0.66 0.60 0.57 0.56 0.55 0.54 0.53 0.55 0.60 0.67 0.70 0.73 0.78 0.76 0.75 0.73 0.70 0.69 0.71 0.74 0.80 0.90 1.02 1.13 1.22 1.12 0.94 0.87 0.87 0.90 0.95 0.86 0.83 0.78 0.72
0.91 0.97 0.99 0.92 0.85 0.79 0.72 0.65 0.61 0.55 0.53 0.55 0.56 0.52 0.48 0.46 0.50 0.58 0.63 0.65 0.73 0.74 0.73 0.73 0.69 0.68 0.70 0.71 0.74 0.79 0.91 1.04 1.15 1.19 1.04 0.93 0.89 0.84 0.82 0.78 0.67 0.62 0.64
0.73 0.73 0.77 0.75 0.71 0.67 0.58 0.53 0.50 0.48 0.48 0.47 0.45 0.44 0.42 0.42 0.42 0.44 0.49 0.53 0.60 0.65 0.67 0.74 0.75 0.72 0.70 0.70 0.74 0.78 0.89 1.00 1.13 1.15 1.06 0.97 0.95 0.90 0.93 0.87 0.77 0.82 0.71
0.67 0.65 0.66 0.64 0.63 0.63 0.56 0.52 0.46 0.43 0.42 0.39 0.35 0.33 0.34 0.33 0.32 0.31 0.32 0.37 0.42 0.47 0.52 0.66 0.73 0.71 0.70 0.74 0.78 0.82 0.88 1.00 1.07 1.09 1.02 0.94 0.94 0.96 0.99 1.03 1.00 0.94 0.83
0.66 0.68 0.68 0.61 0.58 0.61 0.62 0.55 0.49 0.44 0.38 0.36 0.32 0.27 0.27 0.25 0.25 0.25 0.26 0.27 0.34 0.39 0.42 0.52 0.58 0.62 0.64 0.68 0.69 0.75 0.86 1.00 1.07 1.11 1.04 0.98 0.93 1.03 1.06 1.02 0.99 0.99 0.86
0.62 0.70 0.74 0.70 0.66 0.67 0.69 0.65 0.56 0.49 0.43 0.34 0.29 0.27 0.25 0.21 0.23 0.23 0.25 0.30 0.36 0.43 0.49 0.52 0.50 0.52 0.51 0.50 0.56 0.63 0.75 0.91 1.06 1.14 1.09 1.04 0.98 1.02 1.09 1.06 1.06 1.06 1.02
0.70 0.69 0.73 0.74 0.75 0.71 0.65 0.65 0.60 0.52 0.44 0.38 0.31 0.29 0.28 0.21 0.18 0.17 0.20 0.30 0.41 0.48 0.52 0.52 0.44 0.43 0.52 0.55 0.56 0.57 0.66 0.76 0.92 1.12 1.19 1.09 1.03 1.04 1.15 1.19 1.13 1.11 1.10
0.76 0.73 0.67 0.64 0.61 0.58 0.58 0.60 0.57 0.51 0.44 0.41 0.34 0.29 0.30 0.20 0.16 0.15 0.17 0.25 0.32 0.35 0.36 0.42 0.51 0.54 0.48 0.49 0.51 0.62 0.70 0.80 0.86 0.94 1.09 1.02 0.95 0.97 1.07 1.11 1.04 1.01 0.96
0.72 0.67 0.59 0.51 0.49 0.49 0.52 0.54 0.50 0.47 0.44 0.39 0.34 0.32 0.33 0.26 0.18 0.15 0.17 0.25 0.29 0.28 0.25 0.29 0.35 0.40 0.39 0.44 0.55 0.72 0.78 0.88 0.92 1.07 1.07 1.00 0.96 0.94 0.85 0.86 1.03 1.15 1.11
0.60 0.54 0.47 0.43 0.42 0.44 0.45 0.46 0.44 0.42 0.38 0.34 0.32 0.33 0.31 0.27 0.18 0.14 0.15 0.21 0.28 0.26 0.29 0.33 0.31 0.27 0.31 0.40 0.58 0.78 0.91 0.96 1.06 1.26 1.22 1.17 1.08 1.01 0.88 0.86 1.07 1.25 1.23
0.44 0.44 0.44 0.43 0.42 0.40 0.41 0.43 0.41 0.37 0.37 0.35 0.36 0.35 0.30 0.23 0.16 0.10 0.10 0.16 0.21 0.26 0.33 0.37 0.36 0.30 0.31 0.36 0.51 0.71 0.88 0.93 1.15 1.41 1.31 1.14 1.05 0.98 0.95 0.95 1.03 1.10 1.08
0.39 0.42 0.44 0.41 0.35 0.32 0.39 0.43 0.38 0.40 0.41 0.42 0.41 0.36 0.29 0.21 0.15 0.11 0.09 0.08 0.12 0.28 0.42 0.39 0.36 0.35 0.35 0.42 0.56 0.73 0.87 1.05 1.23 1.33 1.14 0.97 0.86 0.83 0.84 0.79 0.74 0.75 0.81
0.39 0.45 0.44 0.38 0.39 0.36 0.37 0.38 0.37 0.38 0.35 0.33 0.34 0.32 0.29 0.25 0.20 0.14 0.11 0.10 0.13 0.24 0.38 0.40 0.39 0.38 0.48 0.68 0.80 0.91 1.05 1.25 1.29 1.15 1.00 0.88 0.73 0.68 0.63 0.62 0.60 0.64 0.67
0.39 0.41 0.40 0.41 0.42 0.42 0.38 0.28 0.26 0.28 0.26 0.25 0.28 0.30 0.32 0.31 0.24 0.18 0.19 0.20 0.21 0.26 0.36 0.48 0.54 0.57 0.73 0.94 1.10 1.19 1.27 1.30 1.15 1.01 0.90 0.78 0.64 0.61 0.59 0.54 0.56 0.59 0.64
0.33 0.35 0.35 0.36 0.37 0.43 0.38 0.23 0.16 0.14 0.11 0.15 0.20 0.22 0.28 0.28 0.18 0.16 0.18 0.21 0.24 0.27 0.34 0.51 0.66 0.71 0.84 0.99 1.13 1.21 1.26 1.23 1.13 0.98 0.87 0.76 0.65 0.59 0.56 0.48 0.48 0.50 0.54
0.31 0.28 0.22 0.21 0.25 0.27 0.31 0.27 0.14 0.06 0.04 0.05 0.07 0.10 0.12 0.15 0.13 0.12 0.14 0.19 0.23 0.31 0.40 0.62 0.73 0.73 0.80 0.90 1.01 1.09 1.08 1.04 0.97 0.92 0.87 0.80 0.70 0.59 0.55 0.51 0.47 0.47 0.52
0.25 0.22 0.14 0.11 0.15 0.19 0.22 0.29 0.28 0.15 0.06 0.04 0.03 0.05 0.07 0.09 0.11 0.11 0.13 0.18 0.23 0.33 0.46 0.66 0.76 0.81 0.85 0.88 0.89 0.92 0.97 0.95 0.87 0.82 0.78 0.72 0.63 0.56 0.52 0.49 0.45 0.44 0.45
0.13 0.10 0.10 0.12 0.12 0.13 0.14 0.17 0.21 0.27 0.26 0.19 0.09 0.05 0.07 0.10 0.12 0.12 0.15 0.20 0.27 0.32 0.47 0.62 0.73 0.79 0.84 0.85 0.83 0.79 0.82 0.84 0.78 0.70 0.65 0.60 0.55 0.52 0.48 0.45 0.41 0.34 0.33
0.13 0.12 0.10 0.08 0.07 0.07 0.08 0.09 0.13 0.18 0.22 0.24 0.21 0.13 0.10 0.13 0.16 0.17 0.21 0.28 0.35 0.36 0.43 0.54 0.64 0.70 0.71 0.71 0.72 0.70 0.71 0.72 0.68 0.62 0.58 0.54 0.51 0.47 0.43 0.35 0.30 0.22 0.25
0.07 0.05 0.05 0.06 0.05 0.05 0.05 0.07 0.10 0.15 0.18 0.19 0.22 0.21 0.17 0.26 0.37 0.34 0.30 0.33 0.34 0.34 0.38 0.49 0.58 0.60 0.58 0.53 0.51 0.51 0.53 0.53 0.53 0.52 0.50 0.48 0.44 0.39 0.32 0.26 0.23 0.23 0.25
0.04 0.03 0.02 0.03 0.04 0.05 0.04 0.04 0.06 0.10 0.14 0.18 0.15 0.15 0.23 0.32 0.41 0.41 0.39 0.41 0.42 0.38 0.37 0.41 0.45 0.48 0.46 0.42 0.38 0.36 0.37 0.39 0.40 0.41 0.42 0.42 0.36 0.31 0.26 0.21 0.18 0.16 0.17
0.03 0.02 0.03 0.03 0.04 0.04 0.04 0.03 0.04 0.05 0.08 0.13 0.14 0.13 0.23 0.28 0.33 0.38 0.41 0.44 0.47 0.44 0.40 0.40 0.40 0.39 0.37 0.35 0.32 0.29 0.28 0.29 0.30 0.33 0.36 0.35 0.31 0.25 0.19 0.15 0.12 0.11 0.10
0.02 0.02 0.03 0.03 0.03 0.03 0.03 0.04 0.04 0.03 0.05 0.09 0.11 0.14 0.20 0.28 0.33 0.39 0.45 0.46 0.46 0.47 0.42 0.38 0.39 0.39 0.35 0.30 0.28 0.25 0.24 0.24 0.25 0.29 0.35 0.35 0.29 0.22 0.15 0.11 0.09 0.07 0.06
0.01 0.01 0.02 0.03 0.03 0.03 0.04 0.04 0.03 0.03 0.03 0.05 0.08 0.11 0.17 0.23 0.27 0.32 0.38 0.43 0.46 0.47 0.45 0.44 0.43 0.41 0.36 0.31 0.27 0.24 0.25 0.25 0.24 0.28 0.30 0.32 0.27 0.18 0.12 0.10 0.08 0.07 0.08
0.01 0.02 0.03 0.02 0.02 0.02 0.03 0.03 0.03 0.03 0.03 0.04 0.05 0.08 0.12 0.15 0.17 0.21 0.27 0.33 0.37 0.40 0.42 0.44 0.42 0.38 0.34 0.29 0.26 0.23 0.25 0.23 0.20 0.23 0.29 0.32 0.25 0.18 0.14 0.11 0.10 0.09 0.09
0.01 0.01 0.02 0.02 0.01 0.01 0.02 0.02 0.02 0.03 0.04 0.04 0.04 0.07 0.09 0.12 0.15 0.18 0.21 0.24 0.27 0.30 0.33 0.38 0.37 0.29 0.22 0.20 0.19 0.16 0.14 0.11 0.10 0.13 0.23 0.27 0.22 0.18 0.18 0.15 0.10 0.10 0.11

GEFSGL_prec_meanprecacc_180.txt.gz
Total_Precipitation_Accumulation
1.14 1.12 1.13 1.12 1.03 0.93 0.88 0.82 0.73 0.67 0.63 0.60 0.61 0.60 0.60 0.62 0.65 0.70 0.71 0.74 0.80 0.79 0.77 0.75 0.73 0.72 0.75 0.78 0.84 0.93 1.06 1.18 1.28 1.18 0.99 0.90 0.91 0.93 0.99 0.90 0.87 0.81 0.74
0.94 1.01 1.05 0.98 0.92 0.85 0.77 0.71 0.67 0.60 0.58 0.59 0.61 0.59 0.54 0.52 0.56 0.62 0.65 0.66 0.75 0.77 0.76 0.76 0.72 0.70 0.72 0.73 0.77 0.82 0.95 1.09 1.20 1.25 1.10 0.97 0.92 0.88 0.85 0.81 0.71 0.66 0.67
0.77 0.77 0.84 0.82 0.78 0.73 0.63 0.58 0.54 0.52 0.53 0.52 0.51 0.51 0.50 0.48 0.48 0.48 0.51 0.55 0.63 0.69 0.71 0.77 0.78 0.76 0.73 0.73 0.76 0.82 0.93 1.05 1.17 1.21 1.13 1.02 0.98 0.95 0.97 0.89 0.81 0.86 0.74
0.70 0.69 0.72 0.71 0.69 0.69 0.61 0.56 0.49 0.46 0.46 0.45 0.41 0.40 0.44 0.42 0.37 0.35 0.38 0.41 0.46 0.50 0.55 0.69 0.76 0.74 0.73 0.78 0.82 0.87 0.93 1.05 1.12 1.14 1.07 0.99 0.99 1.00 1.03 1.06 1.02 0.97 0.85
0.68 0.70 0.72 0.67 0.63 0.67 0.67 0.60 0.52 0.48 0.43 0.44 0.41 0.35 0.36 0.33 0.29 0.30 0.31 0.30 0.37 0.41 0.44 0.54 0.61 0.64 0.66 0.70 0.73 0.80 0.91 1.05 1.12 1.15 1.08 1.02 0.97 1.06 1.09 1.04 1.00 1.02 0.90
0.64 0.72 0.77 0.75 0.72 0.73 0.76 0.72 0.64 0.57 0.50 0.43 0.39 0.36 0.33 0.28 0.27 0.26 0.28 0.32 0.37 0.44 0.50 0.52 0.51 0.53 0.53 0.51 0.58 0.66 0.79 0.97 1.12 1.17 1.13 1.09 1.03 1.05 1.11 1.09 1.08 1.10 1.07
0.72 0.72 0.75 0.78 0.80 0.78 0.74 0.73 0.70 0.62 0.55 0.48 0.39 0.36 0.35 0.26 0.21 0.19 0.22 0.31 0.41 0.48 0.53 0.53 0.44 0.44 0.53 0.56 0.57 0.59 0.70 0.82 1.01 1.19 1.22 1.13 1.08 1.08 1.18 1.22 1.16 1.16 1.13
0.78 0.75 0.69 0.67 0.68 0.64 0.63 0.66 0.64 0.59 0.54 0.49 0.39 0.32 0.32 0.21 0.16 0.16 0.19 0.26 0.33 0.36 0.37 0.43 0.51 0.54 0.48 0.50 0.52 0.63 0.71 0.82 0.91 1.01 1.14 1.06 0.99 1.02 1.10 1.14 1.07 1.03 0.98
0.73 0.68 0.60 0.53 0.54 0.54 0.56 0.57 0.54 0.52 0.50 0.42 0.36 0.33 0.34 0.26 0.18 0.15 0.18 0.26 0.29 0.28 0.26 0.29 0.36 0.40 0.39 0.45 0.55 0.73 0.78 0.89 0.93 1.10 1.11 1.03 1.00 0.98 0.90 0.91 1.07 1.17 1.13
0.61 0.54 0.48 0.45 0.47 0.48 0.48 0.48 0.47 0.46 0.42 0.35 0.33 0.33 0.31 0.27 0.18 0.15 0.16 0.22 0.28 0.27 0.29 0.33 0.31 0.27 0.31 0.41 0.59 0.79 0.92 0.97 1.07 1.26 1.23 1.19 1.10 1.04 0.91 0.90 1.11 1.27 1.25
0.45 0.44 0.44 0.44 0.46 0.44 0.43 0.45 0.43 0.39 0.38 0.36 0.36 0.35 0.30 0.23 0.16 0.11 0.11 0.16 0.22 0.27 0.33 0.38 0.36 0.30 0.31 0.37 0.52 0.72 0.89 0.94 1.15 1.42 1.32 1.15 1.07 1.00 0.96 0.98 1.07 1.13 1.10
0.40 0.42 0.45 0.43 0.39 0.36 0.41 0.45 0.40 0.41 0.42 0.42 0.41 0.36 0.29 0.21 0.15 0.12 0.09 0.09 0.13 0.29 0.43 0.39 0.36 0.36 0.35 0.42 0.57 0.74 0.88 1.06 1.24 1.34 1.15 0.98 0.88 0.84 0.86 0.81 0.77 0.78 0.84
0.40 0.46 0.46 0.40 0.44 0.41 0.38 0.39 0.38 0.40 0.37 0.34 0.35 0.32 0.30 0.25 0.20 0.14 0.12 0.11 0.14 0.24 0.38 0.40 0.39 0.38 0.48 0.68 0.81 0.92 1.06 1.25 1.30 1.16 1.01 0.89 0.75 0.70 0.65 0.64 0.64 0.66 0.69
0.40 0.43 0.42 0.43 0.47 0.47 0.40 0.29 0.27 0.29 0.27 0.26 0.28 0.30 0.32 0.32 0.24 0.18 0.19 0.20 0.22 0.27 0.36 0.48 0.54 0.57 0.73 0.94 1.10 1.20 1.28 1.31 1.16 1.02 0.92 0.79 0.65 0.63 0.61 0.56 0.60 0.62 0.66
0.34 0.36 0.37 0.39 0.41 0.45 0.39 0.24 0.16 0.14 0.11 0.15 0.20 0.22 0.29 0.28 0.18 0.16 0.18 0.21 0.24 0.28 0.34 0.52 0.66 0.71 0.84 1.00 1.14 1.22 1.26 1.25 1.15 1.00 0.88 0.77 0.68 0.62 0.58 0.50 0.50 0.52 0.56
0.32 0.29 0.23 0.23 0.27 0.29 0.31 0.27 0.14 0.06 0.04 0.05 0.07 0.10 0.12 0.15 0.13 0.12 0.15 0.20 0.24 0.31 0.41 0.63 0.74 0.74 0.81 0.90 1.01 1.10 1.10 1.06 0.99 0.95 0.90 0.83 0.74 0.63 0.59 0.53 0.49 0.49 0.54
0.26 0.23 0.15 0.12 0.16 0.20 0.22 0.30 0.28 0.15 0.06 0.04 0.03 0.06 0.08 0.09 0.11 0.12 0.15 0.20 0.24 0.34 0.47 0.66 0.77 0.82 0.85 0.88 0.90 0.94 0.99 0.98 0.90 0.85 0.81 0.75 0.66 0.59 0.55 0.52 0.48 0.46 0.46
0.14 0.11 0.11 0.13 0.13 0.14 0.15 0.17 0.22 0.28 0.26 0.20 0.09 0.06 0.08 0.11 0.14 0.14 0.17 0.21 0.28 0.33 0.48 0.64 0.75 0.81 0.85 0.86 0.84 0.82 0.85 0.87 0.81 0.73 0.68 0.64 0.58 0.54 0.51 0.48 0.44 0.37 0.36
0.14 0.13 0.10 0.09 0.08 0.08 0.09 0.10 0.14 0.19 0.22 0.24 0.21 0.14 0.12 0.15 0.18 0.18 0.22 0.29 0.35 0.37 0.44 0.57 0.67 0.73 0.73 0.73 0.74 0.74 0.74 0.75 0.70 0.64 0.62 0.59 0.55 0.51 0.45 0.38 0.32 0.24 0.27
0.08 0.05 0.05 0.06 0.06 0.06 0.06 0.08 0.10 0.16 0.19 0.21 0.23 0.22 0.18 0.27 0.38 0.35 0.31 0.34 0.36 0.36 0.41 0.52 0.61 0.63 0.61 0.57 0.56 0.57 0.56 0.56 0.57 0.56 0.54 0.52 0.49 0.43 0.35 0.29 0.26 0.26 0.27
0.04 0.03 0.02 0.04 0.05 0.05 0.05 0.04 0.06 0.11 0.15 0.19 0.16 0.16 0.24 0.33 0.42 0.42 0.40 0.43 0.44 0.41 0.41 0.45 0.50 0.53 0.52 0.48 0.45 0.41 0.40 0.43 0.44 0.45 0.46 0.45 0.39 0.34 0.29 0.23 0.20 0.18 0.19
0.03 0.03 0.03 0.03 0.04 0.04 0.04 0.04 0.04 0.05 0.08 0.14 0.14 0.14 0.24 0.29 0.35 0.39 0.42 0.46 0.49 0.47 0.43 0.44 0.46 0.46 0.44 0.41 0.38 0.35 0.33 0.35 0.36 0.38 0.40 0.38 0.33 0.27 0.21 0.17 0.14 0.13 0.13
0.02 0.03 0.03 0.03 0.03 0.03 0.04 0.05 0.04 0.04 0.05 0.10 0.11 0.14 0.21 0.29 0.34 0.40 0.46 0.48 0.49 0.51 0.46 0.42 0.47 0.48 0.41 0.36 0.33 0.31 0.30 0.30 0.28 0.32 0.38 0.39 0.32 0.24 0.18 0.14 0.11 0.09 0.08
0.02 0.02 0.03 0.03 0.03 0.04 0.05 0.05 0.04 0.03 0.04 0.06 0.09 0.12 0.17 0.23 0.28 0.34 0.41 0.46 0.50 0.51 0.50 0.50 0.52 0.49 0.41 0.35 0.31 0.29 0.30 0.31 0.29 0.31 0.33 0.35 0.30 0.22 0.16 0.13 0.11 0.10 0.10
0.02 0.02 0.03 0.03 0.02 0.02 0.03 0.04 0.03 0.03 0.04 0.05 0.06 0.09 0.13 0.15 0.18 0.23 0.30 0.35 0.40 0.43 0.45 0.47 0.47 0.42 0.36 0.32 0.29 0.28 0.31 0.29 0.24 0.26 0.32 0.35 0.28 0.21 0.17 0.14 0.12 0.11 0.11
0.01 0.02 0.02 0.02 0.02 0.01 0.02 0.02 0.02 0.03 0.04 0.04 0.05 0.07 0.10 0.12 0.16 0.19 0.22 0.25 0.28 0.32 0.35 0.40 0.39 0.32 0.25 0.22 0.22 0.20 0.17 0.14 0.13 0.15 0.25 0.29 0.24 0.20 0.20 0.17 0.13 0.12 0.14

GEFSGL_prec_meanprecacc_186.txt.gz
Total_Precipitation_Accumulation
1.18 1.17 1.21 1.21 1.12 1.01 0.94 0.89 0.82 0.78 0.76 0.71 0.68 0.65 0.63 0.65 0.68 0.71 0.73 0.75 0.81 0.80 0.79 0.77 0.74 0.74 0.78 0.80 0.86 0.96 1.08 1.20 1.32 1.23 1.04 0.96 0.94 0.97 1.04 0.95 0.93 0.86 0.78
0.98 1.08 1.14 1.08 1.01 0.92 0.83 0.77 0.74 0.68 0.65 0.63 0.65 0.62 0.57 0.56 0.59 0.64 0.67 0.68 0.76 0.78 0.77 0.77 0.74 0.72 0.76 0.76 0.79 0.85 0.97 1.11 1.23 1.29 1.14 1.03 0.96 0.91 0.90 0.86 0.75 0.71 0.72
0.80 0.81 0.90 0.88 0.84 0.78 0.67 0.61 0.57 0.56 0.57 0.56 0.54 0.53 0.53 0.51 0.51 0.52 0.54 0.57 0.65 0.71 0.73 0.78 0.79 0.78 0.76 0.75 0.78 0.84 0.96 1.07 1.19 1.23 1.16 1.07 1.04 0.98 1.00 0.93 0.83 0.88 0.76
0.74 0.75 0.78 0.76 0.75 0.74 0.66 0.59 0.52 0.49 0.48 0.47 0.43 0.43 0.47 0.46 0.41 0.39 0.42 0.46 0.51 0.55 0.58 0.71 0.77 0.76 0.75 0.79 0.83 0.88 0.94 1.07 1.15 1.17 1.11 1.03 1.02 1.03 1.07 1.10 1.05 1.00 0.88
0.73 0.76 0.81 0.75 0.70 0.73 0.73 0.65 0.56 0.51 0.46 0.46 0.43 0.39 0.41 0.39 0.36 0.37 0.37 0.37 0.42 0.45 0.47 0.56 0.63 0.66 0.68 0.72 0.75 0.82 0.93 1.07 1.14 1.18 1.12 1.06 1.01 1.09 1.12 1.08 1.04 1.05 0.94
0.69 0.80 0.84 0.83 0.80 0.81 0.83 0.78 0.69 0.60 0.54 0.46 0.42 0.39 0.39 0.36 0.37 0.35 0.35 0.37 0.41 0.47 0.53 0.55 0.53 0.56 0.55 0.53 0.60 0.67 0.81 0.99 1.14 1.19 1.15 1.12 1.05 1.08 1.14 1.13 1.12 1.15 1.13
0.74 0.77 0.81 0.83 0.87 0.85 0.81 0.78 0.73 0.66 0.59 0.52 0.43 0.42 0.42 0.36 0.31 0.28 0.29 0.36 0.46 0.52 0.56 0.55 0.46 0.46 0.56 0.58 0.59 0.60 0.71 0.83 1.02 1.20 1.25 1.14 1.10 1.10 1.21 1.26 1.20 1.20 1.18
0.80 0.77 0.72 0.70 0.71 0.67 0.66 0.70 0.68 0.65 0.60 0.54 0.46 0.41 0.41 0.31 0.24 0.23 0.26 0.31 0.37 0.40 0.40 0.45 0.53 0.56 0.50 0.51 0.54 0.64 0.72 0.83 0.91 1.02 1.17 1.08 1.01 1.05 1.14 1.18 1.11 1.08 1.02
0.75 0.70 0.61 0.55 0.56 0.55 0.58 0.60 0.58 0.59 0.55 0.48 0.42 0.40 0.41 0.32 0.22 0.19 0.23 0.30 0.34 0.31 0.28 0.31 0.37 0.41 0.40 0.46 0.57 0.74 0.79 0.89 0.94 1.11 1.12 1.05 1.02 1.02 0.94 0.96 1.12 1.23 1.17
0.62 0.56 0.49 0.46 0.48 0.50 0.50 0.54 0.52 0.50 0.43 0.37 0.35 0.36 0.33 0.30 0.21 0.18 0.19 0.24 0.31 0.28 0.30 0.34 0.32 0.27 0.32 0.42 0.60 0.79 0.92 0.97 1.07 1.27 1.24 1.20 1.12 1.06 0.95 0.95 1.17 1.31 1.28
0.46 0.45 0.45 0.45 0.48 0.46 0.46 0.49 0.48 0.41 0.39 0.37 0.37 0.36 0.30 0.23 0.17 0.12 0.12 0.17 0.23 0.28 0.33 0.38 0.36 0.30 0.31 0.38 0.53 0.73 0.90 0.94 1.16 1.42 1.33 1.16 1.08 1.02 0.99 1.01 1.10 1.15 1.12
0.40 0.43 0.45 0.44 0.41 0.39 0.44 0.48 0.42 0.42 0.42 0.43 0.43 0.37 0.29 0.22 0.16 0.12 0.10 0.10 0.13 0.29 0.43 0.39 0.36 0.36 0.35 0.42 0.57 0.75 0.89 1.06 1.24 1.34 1.16 0.99 0.89 0.85 0.88 0.83 0.79 0.80 0.85
0.41 0.46 0.46 0.41 0.47 0.45 0.42 0.41 0.39 0.40 0.37 0.35 0.35 0.33 0.30 0.26 0.21 0.15 0.12 0.12 0.14 0.25 0.38 0.41 0.40 0.38 0.48 0.69 0.81 0.92 1.07 1.25 1.30 1.17 1.02 0.89 0.76 0.71 0.67 0.67 0.67 0.69 0.70
0.41 0.44 0.43 0.45 0.52 0.51 0.43 0.30 0.27 0.29 0.27 0.26 0.29 0.31 0.32 0.32 0.24 0.19 0.19 0.21 0.22 0.27 0.38 0.49 0.55 0.58 0.74 0.95 1.11 1.21 1.29 1.31 1.17 1.03 0.93 0.81 0.67 0.64 0.64 0.61 0.67 0.66 0.69
0.35 0.38 0.39 0.43 0.46 0.48 0.40 0.24 0.17 0.15 0.12 0.15 0.20 0.22 0.29 0.28 0.19 0.17 0.18 0.22 0.25 0.29 0.35 0.53 0.67 0.72 0.85 1.00 1.15 1.23 1.27 1.26 1.16 1.01 0.89 0.79 0.69 0.63 0.61 0.55 0.59 0.59 0.60
0.34 0.31 0.27 0.29 0.31 0.30 0.32 0.27 0.15 0.06 0.05 0.05 0.07 0.10 0.13 0.15 0.13 0.12 0.15 0.20 0.25 0.33 0.42 0.64 0.75 0.75 0.81 0.91 1.02 1.11 1.10 1.07 1.00 0.97 0.92 0.86 0.76 0.64 0.61 0.57 0.53 0.54 0.60
0.29 0.27 0.20 0.17 0.19 0.21 0.23 0.30 0.28 0.16 0.06 0.04 0.04 0.06 0.08 0.10 0.12 0.13 0.16 0.21 0.25 0.34 0.48 0.67 0.77 0.83 0.86 0.89 0.91 0.94 1.00 0.99 0.91 0.88 0.84 0.78 0.69 0.61 0.58 0.56 0.52 0.51 0.50
0.18 0.15 0.15 0.16 0.15 0.15 0.15 0.18 0.22 0.28 0.26 0.20 0.10 0.07 0.09 0.11 0.14 0.15 0.17 0.22 0.28 0.33 0.49 0.64 0.75 0.81 0.85 0.87 0.86 0.83 0.87 0.89 0.83 0.76 0.72 0.67 0.61 0.58 0.55 0.53 0.49 0.41 0.39
0.16 0.15 0.12 0.10 0.09 0.09 0.09 0.10 0.14 0.19 0.23 0.25 0.22 0.15 0.12 0.16 0.18 0.19 0.23 0.29 0.36 0.37 0.45 0.57 0.68 0.73 0.73 0.74 0.76 0.75 0.77 0.81 0.76 0.69 0.67 0.63 0.59 0.55 0.50 0.42 0.36 0.28 0.31
0.08 0.06 0.07 0.07 0.07 0.06 0.06 0.08 0.11 0.16 0.19 0.21 0.24 0.22 0.19 0.28 0.38 0.35 0.31 0.34 0.36 0.36 0.42 0.53 0.62 0.64 0.62 0.58 0.58 0.59 0.61 0.63 0.63 0.62 0.59 0.56 0.52 0.48 0.39 0.32 0.29 0.29 0.30
0.05 0.04 0.04 0.04 0.05 0.05 0.05 0.05 0.07 0.11 0.16 0.20 0.17 0.16 0.25 0.33 0.43 0.42 0.40 0.43 0.45 0.42 0.42 0.46 0.51 0.54 0.54 0.50 0.47 0.44 0.45 0.48 0.49 0.49 0.50 0.48 0.42 0.37 0.31 0.26 0.24 0.21 0.21
0.04 0.03 0.03 0.04 0.05 0.04 0.04 0.04 0.04 0.06 0.09 0.14 0.15 0.15 0.24 0.29 0.36 0.39 0.42 0.46 0.50 0.48 0.44 0.45 0.47 0.49 0.46 0.43 0.41 0.38 0.37 0.39 0.39 0.41 0.43 0.41 0.35 0.29 0.23 0.19 0.16 0.15 0.15
0.03 0.03 0.04 0.04 0.03 0.03 0.04 0.05 0.05 0.04 0.06 0.10 0.12 0.15 0.21 0.29 0.35 0.41 0.47 0.49 0.50 0.52 0.47 0.43 0.49 0.52 0.45 0.38 0.35 0.32 0.32 0.32 0.31 0.35 0.42 0.43 0.36 0.28 0.22 0.17 0.13 0.11 0.10
0.03 0.02 0.03 0.03 0.03 0.04 0.05 0.05 0.04 0.03 0.04 0.06 0.09 0.12 0.18 0.23 0.28 0.34 0.41 0.47 0.51 0.52 0.51 0.53 0.58 0.53 0.42 0.36 0.33 0.31 0.32 0.34 0.33 0.34 0.36 0.39 0.33 0.24 0.18 0.15 0.13 0.12 0.12
0.04 0.04 0.04 0.03 0.03 0.03 0.03 0.04 0.03 0.03 0.04 0.05 0.07 0.10 0.13 0.16 0.18 0.23 0.30 0.36 0.40 0.44 0.45 0.50 0.51 0.44 0.38 0.33 0.31 0.30 0.33 0.30 0.27 0.29 0.34 0.37 0.30 0.23 0.18 0.15 0.14 0.12 0.12
0.04 0.04 0.03 0.03 0.02 0.02 0.02 0.02 0.02 0.03 0.04 0.05 0.06 0.08 0.10 0.13 0.16 0.20 0.23 0.26 0.29 0.32 0.36 0.41 0.41 0.33 0.26 0.24 0.23 0.22 0.18 0.15 0.14 0.17 0.26 0.31 0.25 0.21 0.21 0.18 0.14 0.14 0.15

GEFSGL_prec_meanprecacc_192.txt.gz
Total_Precipitation_Accumulation
1.22 1.22 1.26 1.25 1.16 1.05 0.98 0.92 0.85 0.82 0.79 0.75 0.72 0.68 0.68 0.70 0.72 0.75 0.75 0.77 0.83 0.83 0.82 0.81 0.79 0.78 0.81 0.83 0.89 0.99 1.13 1.26 1.39 1.28 1.08 0.99 0.98 1.01 1.08 1.00 0.97 0.90 0.82
1.02 1.11 1.17 1.12 1.06 0.99 0.91 0.83 0.77 0.70 0.66 0.65 0.67 0.64 0.59 0.57 0.61 0.67 0.70 0.70 0.79 0.80 0.79 0.79 0.76 0.76 0.80 0.79 0.81 0.88 1.01 1.15 1.28 1.33 1.19 1.08 1.01 0.96 0.96 0.93 0.81 0.77 0.77
0.83 0.84 0.93 0.92 0.90 0.87 0.77 0.68 0.61 0.58 0.58 0.58 0.55 0.54 0.54 0.52 0.52 0.54 0.57 0.60 0.68 0.74 0.75 0.80 0.81 0.81 0.79 0.77 0.81 0.87 0.99 1.11 1.24 1.27 1.20 1.12 1.08 1.02 1.04 0.98 0.88 0.94 0.80
0.76 0.78 0.82 0.80 0.79 0.82 0.74 0.64 0.55 0.50 0.50 0.49 0.44 0.44 0.49 0.48 0.42 0.41 0.45 0.49 0.55 0.58 0.61 0.73 0.79 0.79 0.78 0.82 0.86 0.91 0.98 1.11 1.19 1.22 1.15 1.08 1.06 1.07 1.11 1.15 1.10 1.04 0.92
0.75 0.79 0.85 0.79 0.74 0.78 0.79 0.69 0.59 0.53 0.47 0.47 0.45 0.41 0.43 0.41 0.38 0.39 0.40 0.40 0.46 0.49 0.51 0.59 0.65 0.68 0.70 0.74 0.77 0.85 0.97 1.11 1.17 1.21 1.16 1.10 1.04 1.13 1.17 1.13 1.09 1.10 0.97
0.70 0.81 0.87 0.85 0.82 0.83 0.86 0.81 0.71 0.63 0.55 0.48 0.44 0.41 0.41 0.38 0.38 0.36 0.37 0.39 0.44 0.51 0.56 0.58 0.55 0.57 0.57 0.56 0.63 0.71 0.85 1.03 1.17 1.22 1.18 1.15 1.08 1.11 1.18 1.17 1.17 1.20 1.17
0.76 0.79 0.83 0.85 0.88 0.86 0.83 0.80 0.75 0.68 0.61 0.54 0.45 0.44 0.44 0.37 0.32 0.29 0.30 0.38 0.48 0.55 0.60 0.59 0.49 0.48 0.58 0.60 0.61 0.63 0.73 0.85 1.05 1.23 1.28 1.18 1.13 1.13 1.24 1.29 1.23 1.23 1.21
0.82 0.79 0.75 0.73 0.74 0.69 0.68 0.72 0.70 0.67 0.61 0.56 0.48 0.44 0.44 0.34 0.27 0.26 0.29 0.33 0.40 0.43 0.44 0.50 0.58 0.60 0.54 0.56 0.57 0.68 0.76 0.86 0.94 1.04 1.20 1.12 1.05 1.09 1.18 1.21 1.15 1.12 1.06
0.77 0.72 0.64 0.57 0.58 0.57 0.60 0.62 0.60 0.60 0.57 0.51 0.44 0.42 0.43 0.35 0.26 0.24 0.28 0.34 0.38 0.36 0.32 0.36 0.42 0.46 0.44 0.52 0.63 0.79 0.84 0.94 0.97 1.12 1.13 1.06 1.03 1.03 0.97 0.99 1.16 1.27 1.21
0.66 0.58 0.53 0.48 0.50 0.51 0.53 0.58 0.56 0.52 0.46 0.40 0.38 0.38 0.36 0.33 0.25 0.21 0.23 0.29 0.36 0.33 0.35 0.40 0.39 0.33 0.36 0.47 0.66 0.85 0.98 1.02 1.11 1.29 1.26 1.21 1.12 1.07 0.96 0.98 1.21 1.37 1.33
0.50 0.49 0.49 0.50 0.51 0.49 0.50 0.54 0.50 0.43 0.41 0.39 0.39 0.38 0.33 0.26 0.21 0.16 0.16 0.21 0.27 0.32 0.38 0.43 0.42 0.34 0.35 0.41 0.57 0.76 0.93 0.97 1.18 1.45 1.35 1.18 1.10 1.03 1.01 1.03 1.13 1.19 1.16
0.45 0.48 0.51 0.48 0.44 0.43 0.49 0.51 0.44 0.43 0.43 0.45 0.44 0.38 0.31 0.23 0.17 0.14 0.11 0.12 0.15 0.32 0.45 0.42 0.39 0.38 0.37 0.44 0.59 0.76 0.90 1.08 1.26 1.36 1.18 1.02 0.91 0.88 0.91 0.85 0.81 0.82 0.87
0.43 0.51 0.51 0.45 0.51 0.49 0.45 0.43 0.40 0.41 0.38 0.36 0.37 0.34 0.31 0.27 0.22 0.16 0.13 0.13 0.15 0.26 0.39 0.43 0.41 0.40 0.50 0.71 0.83 0.94 1.08 1.27 1.32 1.19 1.04 0.91 0.78 0.74 0.71 0.70 0.69 0.71 0.73
0.46 0.48 0.47 0.48 0.57 0.55 0.45 0.31 0.29 0.30 0.28 0.28 0.30 0.32 0.33 0.33 0.26 0.20 0.21 0.22 0.23 0.29 0.39 0.51 0.57 0.60 0.75 0.96 1.12 1.22 1.30 1.33 1.19 1.06 0.96 0.83 0.69 0.68 0.67 0.64 0.71 0.70 0.74
0.41 0.44 0.44 0.48 0.50 0.50 0.41 0.26 0.18 0.16 0.13 0.16 0.21 0.23 0.30 0.30 0.20 0.18 0.20 0.23 0.26 0.30 0.36 0.54 0.69 0.73 0.86 1.01 1.15 1.23 1.28 1.27 1.17 1.03 0.92 0.81 0.72 0.67 0.65 0.60 0.65 0.65 0.67
0.40 0.37 0.33 0.34 0.34 0.32 0.34 0.28 0.15 0.07 0.05 0.05 0.07 0.11 0.14 0.16 0.14 0.13 0.17 0.21 0.25 0.33 0.42 0.65 0.76 0.76 0.82 0.92 1.03 1.12 1.12 1.08 1.02 0.99 0.93 0.88 0.79 0.69 0.66 0.62 0.62 0.64 0.69
0.34 0.34 0.26 0.21 0.22 0.22 0.25 0.31 0.29 0.16 0.07 0.05 0.05 0.07 0.09 0.10 0.12 0.13 0.16 0.21 0.25 0.35 0.49 0.68 0.79 0.84 0.87 0.89 0.91 0.95 1.01 1.01 0.93 0.90 0.86 0.81 0.72 0.65 0.63 0.63 0.60 0.61 0.60
0.23 0.20 0.18 0.19 0.17 0.17 0.17 0.19 0.23 0.29 0.27 0.21 0.11 0.08 0.09 0.12 0.15 0.15 0.18 0.22 0.29 0.34 0.49 0.65 0.76 0.82 0.87 0.89 0.87 0.85 0.89 0.91 0.85 0.78 0.74 0.70 0.65 0.62 0.60 0.59 0.55 0.49 0.47
0.19 0.18 0.15 0.13 0.11 0.10 0.10 0.11 0.15 0.20 0.24 0.25 0.22 0.15 0.13 0.16 0.19 0.20 0.23 0.29 0.36 0.38 0.45 0.57 0.68 0.74 0.75 0.76 0.78 0.77 0.80 0.84 0.79 0.73 0.71 0.69 0.65 0.60 0.54 0.46 0.40 0.32 0.35
0.10 0.08 0.08 0.09 0.08 0.07 0.07 0.10 0.13 0.18 0.21 0.22 0.24 0.23 0.19 0.28 0.39 0.36 0.32 0.35 0.37 0.37 0.43 0.54 0.63 0.65 0.64 0.60 0.59 0.61 0.64 0.66 0.68 0.69 0.67 0.65 0.60 0.54 0.44 0.36 0.33 0.32 0.33
0.07 0.05 0.05 0.07 0.06 0.06 0.06 0.07 0.08 0.12 0.17 0.21 0.17 0.17 0.26 0.34 0.43 0.42 0.41 0.44 0.46 0.43 0.43 0.47 0.52 0.56 0.56 0.53 0.49 0.47 0.48 0.52 0.54 0.56 0.59 0.57 0.50 0.43 0.36 0.30 0.28 0.25 0.24
0.06 0.05 0.06 0.06 0.06 0.05 0.05 0.06 0.06 0.07 0.10 0.16 0.16 0.15 0.25 0.30 0.36 0.40 0.43 0.47 0.51 0.49 0.45 0.46 0.48 0.51 0.50 0.47 0.43 0.41 0.41 0.44 0.44 0.46 0.48 0.46 0.40 0.35 0.29 0.24 0.22 0.20 0.19
0.04 0.05 0.06 0.05 0.05 0.04 0.05 0.06 0.06 0.06 0.07 0.11 0.13 0.15 0.22 0.30 0.35 0.41 0.47 0.49 0.51 0.52 0.47 0.44 0.50 0.54 0.47 0.41 0.37 0.35 0.34 0.35 0.33 0.37 0.44 0.45 0.39 0.33 0.28 0.22 0.18 0.16 0.15
0.04 0.03 0.05 0.06 0.05 0.05 0.05 0.05 0.04 0.04 0.04 0.07 0.10 0.12 0.18 0.24 0.28 0.34 0.42 0.47 0.51 0.53 0.52 0.53 0.59 0.55 0.44 0.39 0.34 0.32 0.33 0.35 0.33 0.35 0.37 0.40 0.35 0.27 0.22 0.19 0.17 0.16 0.16
0.04 0.04 0.04 0.04 0.05 0.05 0.04 0.04 0.04 0.04 0.05 0.06 0.07 0.10 0.13 0.16 0.18 0.23 0.31 0.36 0.41 0.44 0.46 0.51 0.51 0.44 0.38 0.34 0.31 0.30 0.33 0.31 0.27 0.30 0.35 0.38 0.31 0.25 0.21 0.18 0.17 0.16 0.16
0.04 0.04 0.03 0.03 0.03 0.03 0.03 0.03 0.03 0.04 0.05 0.05 0.06 0.08 0.10 0.13 0.17 0.20 0.24 0.26 0.29 0.33 0.37 0.42 0.41 0.34 0.27 0.24 0.24 0.22 0.19 0.15 0.14 0.17 0.27 0.31 0.26 0.22 0.23 0.20 0.16 0.16 0.18

GEFSGL_prec_meanprecacc_198.txt.gz
Total_Precipitation_Accumulation
1.26 1.26 1.30 1.29 1.20 1.10 1.04 0.99 0.93 0.89 0.85 0.80 0.76 0.72 0.72 0.75 0.77 0.80 0.79 0.80 0.86 0.87 0.87 0.86 0.85 0.86 0.90 0.89 0.94 1.04 1.18 1.32 1.45 1.35 1.15 1.04 1.03 1.08 1.13 1.05 1.01 0.94 0.86
1.08 1.17 1.22 1.17 1.12 1.05 0.97 0.90 0.86 0.77 0.72 0.70 0.71 0.67 0.62 0.60 0.64 0.69 0.73 0.73 0.81 0.83 0.82 0.84 0.82 0.82 0.87 0.86 0.88 0.93 1.05 1.20 1.35 1.41 1.26 1.14 1.05 1.01 1.02 0.99 0.85 0.79 0.80
0.89 0.90 0.99 0.99 0.97 0.93 0.84 0.76 0.70 0.65 0.63 0.61 0.58 0.57 0.57 0.54 0.54 0.56 0.59 0.62 0.70 0.76 0.78 0.85 0.86 0.86 0.84 0.83 0.86 0.92 1.04 1.16 1.31 1.36 1.28 1.19 1.14 1.07 1.10 1.03 0.92 0.99 0.83
0.81 0.82 0.87 0.88 0.88 0.90 0.83 0.73 0.63 0.56 0.54 0.52 0.47 0.47 0.52 0.50 0.44 0.43 0.46 0.51 0.58 0.62 0.65 0.78 0.85 0.84 0.84 0.87 0.90 0.95 1.03 1.17 1.26 1.30 1.24 1.15 1.13 1.12 1.17 1.20 1.15 1.09 0.96
0.80 0.83 0.90 0.85 0.82 0.87 0.90 0.80 0.68 0.59 0.52 0.51 0.48 0.43 0.46 0.43 0.39 0.40 0.42 0.42 0.50 0.53 0.55 0.63 0.70 0.71 0.73 0.78 0.81 0.89 1.01 1.16 1.23 1.29 1.25 1.18 1.10 1.20 1.23 1.19 1.15 1.15 1.01
0.74 0.85 0.91 0.90 0.88 0.89 0.94 0.89 0.79 0.69 0.61 0.52 0.47 0.44 0.44 0.40 0.39 0.37 0.39 0.42 0.48 0.56 0.62 0.63 0.59 0.60 0.59 0.58 0.65 0.74 0.89 1.08 1.23 1.30 1.27 1.23 1.16 1.19 1.26 1.25 1.24 1.26 1.23
0.80 0.83 0.88 0.90 0.95 0.95 0.92 0.88 0.84 0.74 0.66 0.58 0.48 0.48 0.48 0.40 0.34 0.31 0.32 0.40 0.51 0.60 0.66 0.65 0.53 0.51 0.61 0.64 0.65 0.67 0.78 0.89 1.10 1.30 1.36 1.26 1.21 1.21 1.33 1.39 1.34 1.31 1.29
0.85 0.83 0.78 0.77 0.79 0.77 0.81 0.86 0.81 0.74 0.66 0.59 0.51 0.48 0.48 0.36 0.30 0.28 0.31 0.36 0.44 0.47 0.49 0.55 0.63 0.65 0.58 0.60 0.62 0.73 0.82 0.92 1.00 1.11 1.27 1.20 1.12 1.18 1.28 1.32 1.26 1.21 1.13
0.80 0.75 0.67 0.62 0.64 0.63 0.68 0.75 0.73 0.70 0.62 0.54 0.47 0.47 0.47 0.38 0.30 0.26 0.29 0.36 0.41 0.38 0.35 0.39 0.46 0.50 0.48 0.55 0.67 0.83 0.89 1.00 1.03 1.19 1.21 1.14 1.11 1.11 1.05 1.09 1.27 1.36 1.28
0.68 0.61 0.56 0.53 0.56 0.58 0.61 0.67 0.66 0.64 0.53 0.44 0.41 0.42 0.40 0.38 0.29 0.24 0.26 0.31 0.39 0.36 0.38 0.43 0.43 0.37 0.40 0.51 0.70 0.89 1.04 1.08 1.17 1.37 1.35 1.30 1.20 1.13 1.03 1.05 1.29 1.45 1.40
0.52 0.51 0.52 0.55 0.57 0.56 0.61 0.65 0.60 0.53 0.49 0.44 0.43 0.42 0.37 0.30 0.24 0.19 0.19 0.24 0.31 0.36 0.41 0.47 0.47 0.40 0.38 0.44 0.62 0.82 0.99 1.03 1.25 1.51 1.41 1.24 1.16 1.10 1.08 1.09 1.20 1.26 1.23
0.47 0.51 0.54 0.54 0.51 0.50 0.58 0.63 0.55 0.52 0.50 0.50 0.49 0.43 0.35 0.27 0.21 0.17 0.14 0.13 0.17 0.34 0.48 0.45 0.43 0.41 0.39 0.46 0.61 0.78 0.92 1.10 1.30 1.40 1.21 1.06 0.96 0.93 0.97 0.92 0.88 0.88 0.93
0.46 0.55 0.56 0.52 0.59 0.58 0.55 0.53 0.51 0.50 0.44 0.41 0.41 0.38 0.35 0.30 0.25 0.18 0.15 0.14 0.16 0.28 0.41 0.45 0.43 0.40 0.51 0.71 0.84 0.95 1.10 1.30 1.36 1.23 1.08 0.96 0.83 0.80 0.77 0.77 0.76 0.78 0.79
0.52 0.54 0.53 0.56 0.66 0.64 0.53 0.42 0.38 0.37 0.33 0.32 0.34 0.35 0.36 0.35 0.28 0.22 0.22 0.23 0.25 0.30 0.40 0.52 0.58 0.60 0.76 0.97 1.13 1.23 1.33 1.36 1.22 1.09 1.00 0.87 0.72 0.71 0.72 0.70 0.76 0.77 0.81
0.48 0.51 0.52 0.54 0.58 0.59 0.48 0.33 0.27 0.21 0.17 0.20 0.24 0.26 0.32 0.32 0.22 0.20 0.22 0.25 0.28 0.31 0.37 0.56 0.71 0.75 0.88 1.03 1.17 1.25 1.31 1.30 1.20 1.06 0.95 0.85 0.75 0.70 0.69 0.65 0.70 0.70 0.74
0.46 0.43 0.39 0.40 0.40 0.39 0.38 0.33 0.20 0.10 0.07 0.07 0.09 0.13 0.16 0.17 0.15 0.14 0.18 0.22 0.26 0.33 0.44 0.68 0.79 0.79 0.85 0.94 1.05 1.15 1.15 1.11 1.05 1.03 0.98 0.93 0.83 0.73 0.70 0.67 0.66 0.69 0.75
0.40 0.40 0.31 0.27 0.27 0.26 0.28 0.34 0.31 0.18 0.08 0.06 0.06 0.08 0.10 0.11 0.14 0.14 0.17 0.22 0.25 0.36 0.50 0.70 0.80 0.86 0.90 0.92 0.94 0.98 1.05 1.04 0.97 0.95 0.93 0.86 0.78 0.71 0.69 0.69 0.67 0.68 0.67
0.28 0.24 0.24 0.26 0.22 0.20 0.20 0.21 0.25 0.31 0.29 0.21 0.12 0.09 0.10 0.13 0.16 0.17 0.19 0.23 0.30 0.35 0.51 0.67 0.78 0.85 0.89 0.91 0.89 0.88 0.92 0.95 0.90 0.83 0.80 0.77 0.72 0.71 0.69 0.68 0.65 0.59 0.55
0.25 0.22 0.20 0.18 0.15 0.13 0.13 0.14 0.18 0.23 0.26 0.26 0.23 0.16 0.15 0.17 0.20 0.20 0.24 0.31 0.38 0.39 0.47 0.59 0.70 0.77 0.78 0.79 0.81 0.81 0.84 0.88 0.83 0.78 0.79 0.79 0.76 0.71 0.65 0.56 0.48 0.39 0.41
0.15 0.12 0.13 0.13 0.10 0.09 0.10 0.13 0.17 0.21 0.24 0.24 0.26 0.24 0.21 0.29 0.40 0.36 0.32 0.35 0.38 0.38 0.44 0.55 0.64 0.67 0.66 0.63 0.62 0.65 0.67 0.70 0.72 0.74 0.73 0.70 0.66 0.60 0.52 0.44 0.40 0.39 0.40
0.10 0.10 0.09 0.08 0.07 0.07 0.08 0.09 0.11 0.15 0.19 0.22 0.18 0.17 0.27 0.36 0.45 0.43 0.41 0.45 0.47 0.45 0.44 0.48 0.53 0.57 0.57 0.54 0.52 0.50 0.51 0.56 0.58 0.61 0.64 0.63 0.56 0.49 0.42 0.36 0.34 0.31 0.30
0.08 0.09 0.08 0.07 0.08 0.08 0.08 0.08 0.09 0.10 0.13 0.18 0.17 0.16 0.26 0.32 0.37 0.41 0.43 0.47 0.51 0.50 0.46 0.47 0.50 0.52 0.52 0.49 0.45 0.43 0.43 0.47 0.48 0.51 0.54 0.51 0.45 0.40 0.33 0.28 0.26 0.25 0.24
0.07 0.08 0.08 0.06 0.06 0.06 0.08 0.08 0.09 0.09 0.10 0.13 0.14 0.17 0.23 0.31 0.36 0.42 0.48 0.50 0.51 0.53 0.49 0.45 0.52 0.56 0.49 0.43 0.39 0.37 0.36 0.37 0.37 0.41 0.50 0.51 0.43 0.36 0.31 0.26 0.22 0.20 0.19
0.06 0.06 0.07 0.07 0.06 0.06 0.07 0.07 0.06 0.06 0.07 0.09 0.11 0.13 0.19 0.24 0.29 0.35 0.43 0.48 0.53 0.55 0.53 0.54 0.60 0.56 0.45 0.39 0.35 0.33 0.34 0.36 0.34 0.36 0.39 0.42 0.38 0.30 0.24 0.22 0.19 0.18 0.19
0.06 0.05 0.05 0.05 0.05 0.06 0.06 0.06 0.05 0.05 0.06 0.08 0.09 0.11 0.14 0.17 0.19 0.24 0.32 0.37 0.41 0.45 0.47 0.51 0.52 0.44 0.38 0.34 0.31 0.31 0.34 0.32 0.28 0.31 0.36 0.39 0.33 0.26 0.23 0.20 0.19 0.18 0.18
0.05 0.05 0.04 0.04 0.04 0.04 0.04 0.04 0.03 0.05 0.06 0.07 0.08 0.10 0.11 0.14 0.17 0.21 0.24 0.27 0.30 0.33 0.37 0.42 0.42 0.34 0.27 0.25 0.25 0.23 0.19 0.16 0.15 0.18 0.28 0.33 0.28 0.24 0.24 0.22 0.17 0.18 0.20